Time,TemperatureF,DewpointF,PressureIn,WindDirection,WindDirectionDegrees,WindSpeedMPH,WindSpeedGustMPH,Humidity,HourlyPrecipIn,Conditions,Clouds,dailyrainin,SoftwareType,DateUTC
2013-10-22 00:14:00,67.6,65.0,29.99,NNE,15,0.0,8.0,91,0.00,,,0.00,weatherlink.com 1.10,2013-10-22 04:14:00,
2013-10-22 00:29:00,66.8,64.0,29.99,NNE,27,0.0,11.0,90,0.00,,,0.00,weatherlink.com 1.10,2013-10-22 04:29:00,
2013-10-22 00:44:00,66.5,64.0,29.98,NNE,29,0.0,10.0,90,0.00,,,0.00,weatherlink.com 1.10,2013-10-22 04:44:00,
2013-10-22 00:59:00,66.4,64.0,29.97,NNE,32,0.0,10.0,90,0.00,,,0.00,weatherlink.com 1.10,2013-10-22 04:59:00,
2013-10-22 01:14:00,66.4,63.0,29.97,NNE,25,0.0,9.0,89,0.00,,,0.00,weatherlink.com 1.10,2013-10-22 05:14:00,
2013-10-22 01:29:00,66.8,64.0,29.96,NNE,12,0.0,11.0,90,0.00,,,0.00,weatherlink.com 1.10,2013-10-22 05:29:00,
2013-10-22 01:44:00,67.1,64.0,29.97,NNE,22,0.0,12.0,89,0.00,,,0.00,weatherlink.com 1.10,2013-10-22 05:44:00,
2013-10-22 01:59:00,67.1,64.0,29.97,NE,41,0.0,13.0,88,0.00,,,0.00,weatherlink.com 1.10,2013-10-22 05:59:00,
2013-10-22 02:14:00,67.0,63.0,29.97,NNE,19,0.0,13.0,87,0.00,,,0.00,weatherlink.com 1.10,2013-10-22 06:14:00,
2013-10-22 02:29:00,66.9,62.0,29.96,North,350,0.0,11.0,84,0.00,,,0.00,weatherlink.com 1.10,2013-10-22 06:29:00,
2013-10-22 02:44:00,67.1,62.0,29.96,North,9,0.0,13.0,84,0.00,,,0.00,weatherlink.com 1.10,2013-10-22 06:44:00,
2013-10-22 02:59:00,67.2,62.0,29.97,NNE,32,0.0,13.0,82,0.00,,,0.00,weatherlink.com 1.10,2013-10-22 06:59:00,
2013-10-22 03:14:00,66.7,61.0,29.96,NNE,15,0.0,15.0,81,0.00,,,0.00,weatherlink.com 1.10,2013-10-22 07:14:00,
2013-10-22 03:29:00,-999.0,-99.9,29.96,North,-999,-999.0,-999.0,-999,0.00,,,0.00,weatherlink.com 1.10,2013-10-22 07:29:00,
2013-10-22 03:44:00,66.1,59.0,29.95,ESE,121,10.0,19.0,77,0.00,,,0.00,weatherlink.com 1.10,2013-10-22 07:44:00,
2013-10-22 03:59:00,66.0,59.0,29.95,SSW,208,14.0,19.0,78,0.00,,,0.00,weatherlink.com 1.10,2013-10-22 07:59:00,
2013-10-22 04:14:00,65.6,59.0,29.94,SE,127,12.0,17.0,80,0.00,,,0.00,weatherlink.com 1.10,2013-10-22 08:14:00,
2013-10-22 04:29:00,65.4,60.0,29.94,SSW,193,7.0,10.0,83,0.00,,,0.00,weatherlink.com 1.10,2013-10-22 08:29:00,
2013-10-22 04:44:00,65.2,61.0,29.95,SE,140,9.0,13.0,85,0.00,,,0.00,weatherlink.com 1.10,2013-10-22 08:44:00,
2013-10-22 04:59:00,65.1,61.0,29.95,SSE,155,10.0,15.0,86,0.00,,,0.00,weatherlink.com 1.10,2013-10-22 08:59:00,
2013-10-22 05:14:00,64.9,60.0,29.96,SE,146,5.0,11.0,85,0.00,,,0.00,weatherlink.com 1.10,2013-10-22 09:14:00,
2013-10-22 05:29:00,64.9,60.0,29.96,SSE,150,7.0,12.0,83,0.00,,,0.00,weatherlink.com 1.10,2013-10-22 09:29:00,
2013-10-22 05:44:00,65.0,59.0,29.96,SSE,150,8.0,11.0,80,0.00,,,0.00,weatherlink.com 1.10,2013-10-22 09:44:00,
2013-10-22 05:59:00,65.1,59.0,29.96,SE,144,11.0,13.0,80,0.00,,,0.00,weatherlink.com 1.10,2013-10-22 09:59:00,
2013-10-22 06:15:00,65.0,58.0,29.95,SSE,157,8.0,12.0,79,0.00,,,0.00,weatherlink.com 1.10,2013-10-22 10:15:00,
2013-10-22 06:30:00,65.0,57.0,29.96,SSE,160,9.0,13.0,76,0.00,,,0.00,weatherlink.com 1.10,2013-10-22 10:30:00,
2013-10-22 06:45:00,65.0,57.0,29.97,ESE,117,8.0,13.0,76,0.00,,,0.00,weatherlink.com 1.10,2013-10-22 10:45:00,
2013-10-22 07:00:00,65.0,57.0,29.96,SE,146,11.0,14.0,74,0.00,,,0.00,weatherlink.com 1.10,2013-10-22 11:00:00,
2013-10-22 07:15:00,64.9,55.0,29.95,SE,136,11.0,13.0,70,0.00,,,0.00,weatherlink.com 1.10,2013-10-22 11:15:00,
2013-10-22 07:30:00,64.9,55.0,29.96,SSE,148,11.0,15.0,70,0.00,,,0.00,weatherlink.com 1.10,2013-10-22 11:30:00,
2013-10-22 07:45:00,64.8,54.0,29.95,SSE,149,10.0,13.0,68,0.00,,,0.00,weatherlink.com 1.10,2013-10-22 11:45:00,
2013-10-22 08:00:00,64.7,53.0,29.96,SSE,152,8.0,14.0,66,0.00,,,0.00,weatherlink.com 1.10,2013-10-22 12:00:00,
2013-10-22 08:15:00,64.6,53.0,29.96,SE,140,10.0,13.0,67,0.00,,,0.00,weatherlink.com 1.10,2013-10-22 12:15:00,
2013-10-22 08:30:00,64.6,55.0,29.96,SE,126,7.0,14.0,70,0.00,,,0.00,weatherlink.com 1.10,2013-10-22 12:30:00,
2013-10-22 08:45:00,64.4,55.0,29.97,SE,145,11.0,14.0,72,0.00,,,0.00,weatherlink.com 1.10,2013-10-22 12:45:00,
2013-10-22 09:00:00,64.5,55.0,29.98,SE,146,9.0,14.0,70,0.00,,,0.00,weatherlink.com 1.10,2013-10-22 13:00:00,
2013-10-22 09:15:00,64.4,52.0,29.98,SSE,159,12.0,14.0,65,0.00,,,0.00,weatherlink.com 1.10,2013-10-22 13:15:00,
2013-10-22 09:30:00,64.4,53.0,29.98,SE,129,10.0,16.0,66,0.00,,,0.00,weatherlink.com 1.10,2013-10-22 13:30:00,
2013-10-22 09:45:00,64.4,53.0,29.99,SE,131,9.0,12.0,67,0.00,,,0.00,weatherlink.com 1.10,2013-10-22 13:45:00,
2013-10-22 10:00:00,64.7,53.0,29.98,ESE,123,6.0,10.0,66,0.00,,,0.00,weatherlink.com 1.10,2013-10-22 14:00:00,
2013-10-22 10:15:00,64.8,54.0,29.98,SE,133,4.0,10.0,68,0.00,,,0.00,weatherlink.com 1.10,2013-10-22 14:15:00,
2013-10-22 10:30:00,64.8,54.0,29.97,SE,129,5.0,7.0,68,0.00,,,0.00,weatherlink.com 1.10,2013-10-22 14:30:00,
2013-10-22 10:45:00,65.0,55.0,29.97,SE,133,5.0,9.0,69,0.00,,,0.00,weatherlink.com 1.10,2013-10-22 14:45:00,
2013-10-22 11:01:00,64.9,55.0,29.95,SSE,147,3.0,8.0,70,0.00,,,0.00,weatherlink.com 1.10,2013-10-22 15:01:00,
2013-10-22 11:15:00,64.9,54.0,29.95,SE,134,9.0,9.0,69,0.00,,,0.00,weatherlink.com 1.10,2013-10-22 15:15:00,
2013-10-22 11:30:00,64.9,55.0,29.95,SE,136,5.0,11.0,70,0.00,,,0.00,weatherlink.com 1.10,2013-10-22 15:30:00,
2013-10-22 11:45:00,65.1,54.0,29.96,ESE,107,4.0,7.0,68,0.00,,,0.00,weatherlink.com 1.10,2013-10-22 15:45:00,
2013-10-22 12:00:00,65.2,55.0,29.95,ESE,120,5.0,9.0,70,0.00,,,0.00,weatherlink.com 1.10,2013-10-22 16:00:00,
2013-10-22 12:15:00,65.2,54.0,29.95,ESE,110,5.0,10.0,68,0.00,,,0.00,weatherlink.com 1.10,2013-10-22 16:15:00,
2013-10-22 12:30:00,65.0,56.0,29.95,ESE,113,5.0,9.0,72,0.00,,,0.00,weatherlink.com 1.10,2013-10-22 16:30:00,
2013-10-22 12:45:00,65.0,56.0,29.94,ESE,104,5.0,9.0,72,0.00,,,0.00,weatherlink.com 1.10,2013-10-22 16:45:00,
2013-10-22 13:00:00,65.3,56.0,29.93,SE,131,7.0,9.0,72,0.00,,,0.00,weatherlink.com 1.10,2013-10-22 17:00:00,
2013-10-22 13:15:00,65.3,56.0,29.93,SE,127,8.0,11.0,72,0.00,,,0.00,weatherlink.com 1.10,2013-10-22 17:15:00,
2013-10-22 13:30:00,65.4,56.0,29.92,SE,128,8.0,12.0,72,0.00,,,0.00,weatherlink.com 1.10,2013-10-22 17:30:00,
2013-10-22 13:45:00,65.4,56.0,29.91,ESE,116,6.0,11.0,72,0.00,,,0.00,weatherlink.com 1.10,2013-10-22 17:45:00,
2013-10-22 14:00:00,65.7,56.0,29.91,SE,125,7.0,11.0,72,0.00,,,0.00,weatherlink.com 1.10,2013-10-22 18:00:00,
2013-10-22 14:15:00,66.0,57.0,29.91,ESE,118,9.0,11.0,72,0.00,,,0.00,weatherlink.com 1.10,2013-10-22 18:15:00,
2013-10-22 14:30:00,66.2,57.0,29.90,SE,138,3.0,10.0,71,0.00,,,0.00,weatherlink.com 1.10,2013-10-22 18:30:00,
2013-10-22 14:45:00,66.0,56.0,29.89,ESE,113,5.0,9.0,71,0.00,,,0.00,weatherlink.com 1.10,2013-10-22 18:45:00,
2013-10-22 15:00:00,66.0,57.0,29.89,ESE,120,6.0,6.0,73,0.00,,,0.00,weatherlink.com 1.10,2013-10-22 19:00:00,
2013-10-22 15:15:00,65.8,57.0,29.89,ESE,112,3.0,7.0,73,0.00,,,0.00,weatherlink.com 1.10,2013-10-22 19:15:00,
2013-10-22 15:30:00,65.8,58.0,29.90,ESE,103,4.0,8.0,75,0.00,,,0.00,weatherlink.com 1.10,2013-10-22 19:30:00,
2013-10-22 15:45:00,65.9,58.0,29.90,East,86,3.0,7.0,75,0.00,,,0.00,weatherlink.com 1.10,2013-10-22 19:45:00,
2013-10-22 16:00:00,66.1,58.0,29.89,ENE,70,1.0,5.0,74,0.00,,,0.00,weatherlink.com 1.10,2013-10-22 20:00:00,
2013-10-22 16:15:00,66.0,58.0,29.89,East,99,3.0,4.0,75,0.00,,,0.00,weatherlink.com 1.10,2013-10-22 20:15:00,
2013-10-22 16:30:00,65.8,58.0,29.89,ENE,68,0.0,5.0,76,0.00,,,0.00,weatherlink.com 1.10,2013-10-22 20:30:00,
2013-10-22 16:45:00,65.8,58.0,29.90,East,91,2.0,6.0,76,0.00,,,0.00,weatherlink.com 1.10,2013-10-22 20:45:00,
2013-10-22 17:00:00,65.5,58.0,29.90,East,84,3.0,4.0,77,0.00,,,0.00,weatherlink.com 1.10,2013-10-22 21:00:00,
2013-10-22 17:15:00,65.3,59.0,29.90,East,101,5.0,5.0,79,0.00,,,0.00,weatherlink.com 1.10,2013-10-22 21:15:00,
2013-10-22 17:30:00,65.6,58.0,29.90,ENE,65,2.0,10.0,77,0.00,,,0.00,weatherlink.com 1.10,2013-10-22 21:30:00,
2013-10-22 17:45:00,65.6,58.0,29.89,East,91,3.0,6.0,76,0.00,,,0.00,weatherlink.com 1.10,2013-10-22 21:45:00,
2013-10-22 18:00:00,65.2,59.0,29.89,East,83,2.0,4.0,79,0.00,,,0.00,weatherlink.com 1.10,2013-10-22 22:00:00,
2013-10-22 18:15:00,65.2,59.0,29.89,East,82,4.0,5.0,79,0.00,,,0.00,weatherlink.com 1.10,2013-10-22 22:15:00,
2013-10-22 18:30:00,65.7,59.0,29.89,NE,53,4.0,8.0,78,0.00,,,0.00,weatherlink.com 1.10,2013-10-22 22:30:00,
2013-10-22 18:45:00,66.0,58.0,29.89,East,86,4.0,9.0,76,0.00,,,0.00,weatherlink.com 1.10,2013-10-22 22:45:00,
2013-10-22 19:15:00,66.0,58.0,29.89,East,79,3.0,5.0,76,0.00,,,0.00,weatherlink.com 1.10,2013-10-22 23:15:00,
2013-10-22 19:30:00,65.9,59.0,29.89,East,84,3.0,7.0,77,0.00,,,0.00,weatherlink.com 1.10,2013-10-22 23:30:00,
2013-10-22 19:45:00,66.2,59.0,29.89,ENE,60,7.0,12.0,77,0.00,,,0.00,weatherlink.com 1.10,2013-10-22 23:45:00,
2013-10-22 20:00:00,66.3,59.0,29.89,NE,55,8.0,12.0,77,0.00,,,0.00,weatherlink.com 1.10,2013-10-23 00:00:00,
2013-10-22 20:15:00,66.2,58.0,29.89,East,79,6.0,13.0,76,0.00,,,0.00,weatherlink.com 1.10,2013-10-23 00:15:00,
2013-10-22 20:30:00,66.1,59.0,29.89,ESE,119,5.0,9.0,77,0.00,,,0.00,weatherlink.com 1.10,2013-10-23 00:30:00,
2013-10-22 20:45:00,65.4,59.0,29.89,East,82,4.0,7.0,79,0.00,,,0.00,weatherlink.com 1.10,2013-10-23 00:45:00,
2013-10-22 21:00:00,64.7,59.0,29.89,East,100,4.0,7.0,82,0.00,,,0.00,weatherlink.com 1.10,2013-10-23 01:00:00,
2013-10-22 21:15:00,64.6,59.0,29.89,East,90,4.0,8.0,82,0.00,,,0.00,weatherlink.com 1.10,2013-10-23 01:15:00,
2013-10-22 21:30:00,64.2,59.0,29.89,East,86,3.0,7.0,84,0.00,,,0.00,weatherlink.com 1.10,2013-10-23 01:30:00,
2013-10-22 21:45:00,64.4,60.0,29.89,East,86,4.0,8.0,84,0.00,,,0.00,weatherlink.com 1.10,2013-10-23 01:45:00,
2013-10-22 22:00:00,65.0,59.0,29.89,ENE,75,5.0,9.0,82,0.00,,,0.00,weatherlink.com 1.10,2013-10-23 02:00:00,
2013-10-22 22:15:00,65.4,59.0,29.89,ENE,58,2.0,8.0,81,0.00,,,0.00,weatherlink.com 1.10,2013-10-23 02:15:00,
2013-10-22 22:30:00,65.4,60.0,29.88,East,97,4.0,8.0,82,0.00,,,0.00,weatherlink.com 1.10,2013-10-23 02:30:00,
2013-10-22 22:45:00,65.3,60.0,29.87,East,79,3.0,6.0,82,0.00,,,0.00,weatherlink.com 1.10,2013-10-23 02:45:00,
2013-10-22 23:00:00,65.4,58.0,29.87,East,86,7.0,9.0,77,0.00,,,0.00,weatherlink.com 1.10,2013-10-23 03:00:00,
2013-10-22 23:15:00,65.2,59.0,29.87,East,95,4.0,7.0,79,0.00,,,0.00,weatherlink.com 1.10,2013-10-23 03:15:00,
2013-10-22 23:31:00,65.0,59.0,29.87,ENE,60,8.0,8.0,81,0.00,,,0.00,weatherlink.com 1.10,2013-10-23 03:31:00,
2013-10-22 23:46:00,65.6,59.0,29.87,NE,39,6.0,10.0,78,0.00,,,0.00,weatherlink.com 1.10,2013-10-23 03:46:00,